Vorticity
9 9 8 10 8 8 7 6 5 7 6 6 6 5 4 5 7 7 7 8 7 7 6 5 6 7 8 8 11 12 15 16 16 20 13 11 15 20
9 10 9 8 8 6 6 7 7 7 8 6 4 5 6 7 9 8 8 7 6 7 7 7 8 10 12 14 12 17 20 15 9 8 9 14 18 17
10 8 7 7 6 7 8 8 8 7 6 4 6 7 9 10 8 7 6 7 7 7 8 9 11 13 12 12 12 11 12 10 9 10 14 18 16 17
7 7 7 8 8 8 8 7 6 7 7 6 8 10 9 7 6 7 7 7 7 8 8 11 12 11 12 13 12 13 14 8 10 18 17 15 14 16
7 7 8 8 8 8 6 6 8 7 8 9 9 8 8 7 7 8 8 10 9 10 11 12 11 15 12 10 12 14 10 12 13 18 17 15 17 16
7 8 8 8 6 6 6 7 6 7 8 8 8 7 7 7 8 8 9 10 11 10 12 12 14 10 11 10 10 12 14 11 17 19 17 15 14 16
8 9 6 6 6 7 5 6 7 7 7 7 8 8 9 10 10 8 9 11 14 9 8 11 12 11 12 15 14 16 11 12 16 20 14 14 15 14
7 7 7 7 4 4 6 6 4 5 5 6 7 10 10 10 8 8 8 10 14 13 13 11 6 7 11 13 15 16 13 13 17 16 10 13 10 6
6 6 5 5 4 4 4 5 4 4 4 4 8 10 10 9 7 11 11 12 12 13 9 9 6 6 10 12 15 17 13 13 12 14 7 8 8 7
6 6 7 4 3 4 6 4 4 4 5 7 11 11 9 9 11 10 9 11 14 14 10 9 7 6 7 9 15 15 14 10 10 9 10 5 8 10
5 6 3 3 5 6 4 4 4 4 5 7 11 12 10 10 10 11 10 12 11 11 13 12 13 8 7 11 16 14 15 15 11 9 7 6 7 9
7 4 4 5 6 3 4 4 3 4 4 10 15 11 11 12 12 9 10 11 11 11 11 9 11 11 10 9 12 12 9 13 14 12 11 10 7 5
4 4 4 5 5 5 4 4 4 3 5 16 12 11 13 12 10 10 11 12 10 11 12 9 12 12 11 14 9 12 12 10 11 15 16 14 13 12
4 3 5 5 4 4 5 4 4 2 13 15 12 13 12 11 11 11 13 12 12 12 12 11 10 11 12 12 12 10 11 11 12 15 14 16 17 14
4 4 5 5 5 6 4 5 2 5 17 12 12 13 12 11 10 13 13 12 14 14 13 12 12 13 12 12 9 11 11 11 12 14 16 15 15 15
3 3 3 4 4 4 6 4 2 13 12 11 15 12 10 10 13 12 11 11 12 13 18 17 16 13 11 11 10 11 12 11 11 14 16 13 10 11
3 3 4 4 6 7 7 4 6 15 11 15 13 9 8 10 12 12 11 11 11 12 18 23 17 12 11 11 12 12 12 13 14 13 13 13 8 10
5 5 4 5 5 7 5 3 12 14 14 14 12 7 10 12 12 11 11 12 12 14 18 17 14 13 13 13 11 12 15 15 15 15 12 11 9 12
4 4 5 4 4 7 4 8 16 13 15 14 7 9 11 13 12 12 13 14 13 14 18 16 12 10 12 12 11 12 12 12 14 16 16 15 14 11
3 4 5 4 7 6 6 16 13 16 13 7 8 13 14 13 12 12 13 13 12 13 15 15 12 10 10 9 9 9 6 9 8 9 11 14 15 13
4 4 6 5 7 6 13 13 17 13 6 8 12 16 14 12 12 13 14 13 13 13 13 13 12 10 9 9 9 9 10 8 9 8 7 8 10 14
5 6 7 7 6 10 14 15 14 6 7 12 17 15 11 11 12 14 14 12 12 13 14 14 15 13 13 11 10 11 13 14 12 12 11 10 8 7
6 10 8 7 9 13 13 15 5 8 13 19 16 10 10 13 14 15 13 12 12 12 13 13 14 12 12 12 12 13 19 22 19 18 16 10 11 10
Height
3081 3085 3086 3089 3091 3094 3094 3095 3095 3097 3095 3094 3093 3092 3090 3088 3086 3082 3077 3074 3070 3066 3061 3055 3049 3044 3038 3032 3026 3019 3014 3008 3002 2997 2991 2986 2981 2977
3078 3081 3083 3085 3089 3090 3092 3092 3092 3092 3091 3089 3088 3086 3085 3081 3079 3074 3070 3065 3061 3057 3050 3044 3038 3032 3026 3020 3014 3007 3001 2995 2990 2984 2979 2975 2970 2967
3074 3077 3081 3085 3086 3088 3089 3090 3088 3089 3087 3084 3082 3081 3079 3075 3070 3066 3061 3057 3052 3045 3038 3032 3027 3021 3015 3008 3002 2995 2990 2985 2981 2975 2970 2965 2961 2959
3072 3076 3080 3081 3084 3086 3086 3086 3086 3086 3082 3079 3077 3074 3071 3067 3063 3059 3053 3047 3042 3035 3028 3023 3018 3012 3007 3000 2993 2988 2983 2977 2971 2966 2961 2956 2952 2950
3070 3075 3076 3078 3081 3083 3083 3082 3083 3079 3077 3075 3071 3068 3063 3059 3055 3050 3045 3040 3034 3027 3020 3015 3008 3002 2996 2990 2984 2980 2975 2969 2964 2957 2952 2948 2946 2943
3070 3072 3073 3077 3077 3078 3078 3078 3076 3073 3071 3067 3064 3060 3056 3051 3046 3042 3039 3031 3027 3019 3013 3007 3000 2994 2988 2981 2975 2970 2966 2961 2955 2950 2945 2942 2939 2937
3067 3068 3070 3073 3074 3075 3073 3071 3069 3067 3063 3060 3058 3054 3049 3044 3039 3033 3027 3022 3017 3009 3005 3000 2993 2988 2981 2975 2968 2963 2958 2953 2948 2943 2940 2937 2934 2932
3064 3066 3068 3070 3071 3070 3068 3066 3064 3061 3057 3055 3050 3046 3039 3034 3028 3022 3015 3011 3005 3000 2993 2994 2984 2980 2975 2967 2961 2956 2951 2947 2942 2938 2935 2933 2930 2927
3063 3064 3066 3067 3066 3066 3065 3062 3058 3055 3052 3048 3042 3037 3031 3024 3018 3013 3007 3001 2995 2989 2981 2983 2977 2974 2968 2960 2953 2948 2944 2941 2937 2934 2931 2928 2925 2922
3061 3062 3064 3064 3062 3064 3060 3056 3053 3049 3045 3039 3034 3028 3021 3014 3009 3004 2997 2991 2987 2982 2973 2971 2969 2965 2961 2954 2947 2941 2936 2932 2930 2927 2925 2922 2919 2916
3058 3059 3062 3060 3061 3059 3056 3053 3048 3042 3037 3031 3025 3018 3012 3006 3000 2994 2988 2982 2977 2976 2969 2961 2960 2955 2953 2948 2941 2934 2928 2924 2921 2918 2916 2914 2911 2909
3056 3059 3058 3057 3056 3053 3051 3047 3042 3036 3031 3024 3018 3013 3007 2999 2991 2985 2979 2974 2969 2964 2960 2953 2949 2945 2942 2939 2935 2929 2924 2918 2913 2909 2906 2904 2902 2899
3055 3055 3054 3052 3050 3048 3046 3041 3035 3030 3025 3020 3013 3005 2999 2992 2985 2980 2973 2967 2961 2956 2951 2943 2939 2935 2930 2926 2925 2921 2916 2912 2907 2902 2898 2895 2893 2889
3050 3050 3050 3048 3044 3042 3038 3034 3029 3023 3017 3011 3005 2999 2991 2986 2981 2974 2968 2961 2955 2949 2943 2936 2929 2924 2919 2915 2913 2913 2908 2903 2899 2895 2891 2888 2885 2882
3047 3046 3046 3042 3040 3036 3032 3027 3020 3012 3006 3002 2996 2989 2983 2978 2973 2966 2961 2954 2948 2942 2934 2927 2920 2915 2911 2906 2902 2903 2896 2895 2890 2886 2883 2880 2877 2875
3044 3043 3040 3037 3034 3029 3024 3018 3011 3005 2999 2992 2987 2981 2975 2970 2965 2958 2951 2945 2939 2934 2927 2919 2912 2906 2902 2900 2895 2894 2890 2884 2882 2877 2875 2873 2871 2867
3040 3037 3034 3030 3026 3022 3017 3011 3004 2998 2992 2985 2978 2973 2968 2963 2957 2950 2942 2936 2930 2923 2918 2913 2906 2900 2895 2892 2889 2886 2882 2879 2874 2869 2866 2865 2864 2861
3034 3031 3027 3023 3020 3015 3010 3005 2998 2991 2984 2977 2972 2967 2960 2954 2947 2941 2934 2927 2921 2915 2909 2903 2898 2894 2892 2890 2882 2879 2877 2871 2868 2863 2859 2856 2856 2855
3027 3024 3021 3017 3013 3008 3003 2997 2990 2983 2976 2971 2966 2960 2952 2946 2940 2933 2926 2920 2914 2908 2903 2897 2891 2886 2882 2879 2878 2873 2867 2865 2860 2856 2852 2849 2847 2846
3022 3018 3015 3010 3005 3001 2995 2989 2982 2975 2970 2965 2958 2952 2945 2938 2931 2924 2919 2913 2906 2901 2898 2893 2886 2880 2875 2870 2867 2869 2861 2855 2851 2847 2843 2841 2838 2836
3015 3012 3007 3002 2997 2993 2986 2980 2974 2968 2962 2956 2950 2943 2936 2929 2924 2918 2911 2905 2899 2893 2889 2885 2881 2875 2869 2864 2860 2858 2856 2851 2844 2838 2833 2828 2825 2825
3008 3004 2999 2994 2989 2983 2977 2972 2966 2961 2955 2948 2940 2934 2928 2922 2916 2910 2904 2898 2893 2888 2882 2877 2874 2868 2864 2858 2853 2848 2846 2844 2840 2834 2829 2821 2814 2810
3000 2996 2991 2985 2980 2974 2968 2963 2958 2953 2946 2938 2932 2927 2921 2915 2909 2903 2897 2892 2886 2880 2875 2870 2867 2862 2857 2852 2846 2841 2837 2834 2829 2826 2825 2818 2811 2805